DELTA 1 R/B(1), 11636

Orbit data source: Space-Track

DELTA 1 R/B(1), 11636 is space debris in LEO originally from a launch on Fri, 07 Dec 1979 UTC launched from the Air Force Eastern Test Range (AFETR). Debris objects in space refer to the collection of defunct objects orbiting the Earth. Examples of debris include non-operational satellites, rocket bodies, and fragments generated from explosions, collisions, or faulty payload assembly.

Loading next visibility...
Identifier
11636, 1979-101B
Orbit
LEO
Country
Flag of USUS
Related business
Manufacturer
MDAC-HB
Mission
Spacecraft
Bus & Motor
DELTA/TR-201, Unknown motor
Mass
845 kg wet, 845 kg dry
Launch date (UTC)
1979-12-07 (47 years ago)
Launch vehicle
Unknown
Launch site
Air Force Eastern Test Range (AFETR)
Object type
Payload
Rocket body
Debris
Shape & HBR
Unknown
Radar Cross Section
Large (>1 m²)

Expand to show TLE details & history
Last TLE update: 1 day ago

TLE from 1 day ago
0 DELTA 1 R/B(1)
1 11636U 79101B   26167.92966822  .00000432  00000-0  22022-3 0  9991
2 11636  28.2136  43.6620 1261239 108.3206 265.8392 12.21255989997134
Epoch: 2026-06-16T22:18Z
TLE epoch observation values (Epoch: 2026-06-16T22:18:43.334Z)
Latitude
0.00002°
Longitude
163.78683°
Altitude
1,781.45 km
Speed
6.906 km/s
True Right ascension
02h 54m 38s
True Declination
0° 00' 00"
Sunlit
Object was in daylight at epoch
Visualization orbit readout
Latitude
Unknown
Longitude
Unknown
Altitude
Unknown
Speed
Unknown
Apparent Right ascension
Unknown
Apparent Declination
Unknown
Sunlit
N/A
Visualization observer readout
Local Sidereal Time
14:18:31
Azimuth
Unknown
Elevation
Unknown
Doppler factor
Unknown
Orbital elements
Apogee altitude
2,595.926 km
Perigee altitude
585.767 km
Semi-major axis
7,968.984 km
Eccentricity
0.12612
Inclination
28.2136°
RAAN
43.662°
Arg. of periapsis
108.3206°
True anomaly
251.73129°
Mean anomaly
265.8392°
Eccentric anomaly
258.75164°
Mean motion
3.05098 °/min
Orbital period
118 mins
BSTAR
0.00022022
Loading maneuver chart data...
Computing Atmospheric mass density...
Loading historical data...
Loading historical data...
Loading historical data...
Loading historical data...
Loading historical data...
Loading historical data...
Loading historical data...

Documentation

Showing up to 5 results
|